State College, PA

2:05 AM EDT on October 21, 2019 (GMT -0400)
University Park

Weather History for KUNV - September, 2019

Change the Weather History Date:

Friday, September 20, 2019

  Actual Average Record
Temperature  
Mean Temperature 60 °F -  
Max Temperature 77 °F 70 °F 90 °F (1932)
Min Temperature 44 °F 50 °F 34 °F (1959)
Degree Days  
Heating Degree Days 4    
Growing Degree Days 10 (Base 50)    
Moisture  
Dew Point 50 °F    
Average Humidity 81    
Maximum Humidity 100    
Minimum Humidity 44    
Precipitation  
Precipitation 0.00 in - - ()
Sea Level Pressure  
Sea Level Pressure 30.26 in    
Wind  
Wind Speed 0 mph (WSW)    
Max Wind Speed 4 mph    
Max Gust Speed -    
Visibility 10 miles    
Events      
Averages and records for this station are not official NWS values.
T = Trace of Precipitation, MM = Missing Value Source: NWS Daily Summary

Daily Weather History Graph

Daily Weather History Graph

Search for Another Location

Airport or City:

Astronomy

Sep. 20, 2019 Rise Set
Actual Time 6:56 AM EDT 7:12 PM EDT
Civil Twilight 6:29 AM EDT 7:39 PM EDT
Nautical Twilight 5:57 AM EDT 8:11 PM EDT
Astronomical Twilight 5:24 AM EDT 8:44 PM EDT
Moon 10:58 PM EDT (9/20) 1:01 PM EDT (9/20)
Length of Visible Light 13h 10m
Length of Day
12h 15m
Waning Gibbous, 65% of the Moon is Illuminated
Sep 20
Waning Gibbous
Sep 21
Last Quarter
Sep 28
New
Oct 5
First Quarter
Oct 13
Full

Hourly Weather History & Observations

Time (EDT) Temp. Dew Point Humidity Pressure Visibility Wind Dir Wind Speed Gust Speed Precip Events Conditions
12:16 AM 52.5 °F 47.3 °F 82% 30.27 in 10.0 mi Calm Calm - N/A   Clear
12:36 AM 50.4 °F 47.5 °F 90% 30.27 in 10.0 mi Calm Calm - N/A   Clear
12:56 AM 53.4 °F 47.5 °F 80% 30.27 in 10.0 mi West 3.5 mph - N/A   Clear
1:19 AM 53.6 °F 47.3 °F 79% 30.27 in 10.0 mi Calm Calm - N/A   Clear
1:55 AM 49.3 °F 47.3 °F 93% 30.28 in 10.0 mi Calm Calm - N/A   Clear
2:15 AM 48.6 °F 46.9 °F 94% 30.27 in 10.0 mi Calm Calm - N/A   Clear
2:35 AM 49.1 °F 46.9 °F 92% 30.27 in 10.0 mi Calm Calm - N/A   Clear
2:40 AM 49.3 °F 47.1 °F 92% 30.27 in 10.0 mi Calm Calm - N/A   Clear
2:58 AM 48.6 °F 47.3 °F 95% 30.27 in 10.0 mi Calm Calm - N/A   Clear
3:16 AM 47.8 °F 46.8 °F 96% 30.27 in 10.0 mi Calm Calm - N/A   Clear
3:35 AM 47.5 °F 46.6 °F 97% 30.27 in 10.0 mi WSW 3.5 mph - N/A   Clear
3:56 AM 48.9 °F 45.9 °F 89% 30.27 in 10.0 mi Calm Calm - N/A   Clear
4:19 AM 48.0 °F 46.0 °F 93% 30.27 in 10.0 mi Calm Calm - N/A   Clear
4:37 AM 45.7 °F 44.8 °F 97% 30.27 in 10.0 mi Calm Calm - N/A   Clear
4:55 AM 45.5 °F 45.0 °F 98% 30.27 in 10.0 mi Calm Calm - N/A   Clear
5:15 AM 46.0 °F 45.7 °F 99% 30.27 in 10.0 mi Calm Calm - N/A   Clear
5:35 AM 46.4 °F 45.7 °F 97% 30.27 in 10.0 mi Calm Calm - N/A   Clear
5:39 AM 46.4 °F 45.5 °F 97% 30.27 in 10.0 mi Calm Calm - N/A   Clear
5:53 AM 44.6 °F 44.6 °F 100% 30.27 in 10.0 mi Calm Calm - N/A   Clear
6:53 AM 44.6 °F 44.6 °F 100% 30.28 in 10.0 mi Calm Calm - N/A   Clear
7:53 AM 44.6 °F 44.6 °F 100% 30.30 in 10.0 mi Calm Calm - N/A   Clear
8:53 AM 50.0 °F 46.4 °F 87% 30.31 in 10.0 mi Calm Calm - N/A   Clear
9:53 AM 55.4 °F 50.0 °F 82% 30.30 in 10.0 mi Calm Calm - N/A   Clear
10:53 AM 60.8 °F 50.0 °F 68% 30.30 in 10.0 mi Calm Calm - N/A   Clear
11:53 AM 66.2 °F 51.8 °F 60% 30.27 in 10.0 mi Calm Calm - N/A   Clear
12:53 PM 69.8 °F 53.6 °F 56% 30.26 in 10.0 mi Calm Calm - N/A   Clear
1:53 PM 73.4 °F 53.6 °F 50% 30.24 in 10.0 mi Calm Calm - N/A   Clear
2:53 PM 75.2 °F 53.6 °F 47% 30.22 in 10.0 mi Calm Calm - N/A   Clear
3:53 PM 75.2 °F 53.6 °F 47% 30.20 in 10.0 mi Calm Calm - N/A   Clear
4:53 PM 77.0 °F 53.6 °F 44% 30.20 in 10.0 mi SSW 3.5 mph - N/A   Clear
5:53 PM 75.2 °F 53.6 °F 47% 30.20 in 10.0 mi SW 3.5 mph - N/A   Clear
6:53 PM 71.6 °F 55.4 °F 57% 30.21 in 10.0 mi Calm Calm - N/A   Clear
7:53 PM 69.8 °F 53.6 °F 56% 30.22 in 10.0 mi Calm Calm - N/A   Clear
8:53 PM 64.4 °F 57.2 °F 77% 30.23 in 10.0 mi Calm Calm - N/A   Clear
9:53 PM 62.6 °F 55.4 °F 77% 30.24 in 10.0 mi WNW 3.5 mph - N/A   Scattered Clouds
10:16 PM 60.1 °F 55.4 °F 85% 30.24 in 10.0 mi Calm Calm - N/A   Scattered Clouds
10:39 PM 59.9 °F 55.2 °F 84% 30.24 in 10.0 mi Calm Calm - N/A   Scattered Clouds
10:57 PM 59.4 °F 54.9 °F 85% 30.24 in 10.0 mi Calm Calm - N/A   Clear
11:16 PM 58.8 °F 55.4 °F 88% 30.24 in 10.0 mi Calm Calm - N/A   Clear
11:35 PM 58.1 °F 54.7 °F 88% 30.24 in 10.0 mi Calm Calm - N/A   Clear
11:55 PM 57.6 °F 54.7 °F 90% 30.24 in 10.0 mi Calm Calm - N/A   Clear